THORAD DELTA 1 DEB, 13528

Orbit data source: Space-Track

THORAD DELTA 1 DEB, 13528 is space debris in LEO originally from a launch on Fri, 15 Nov 1974 UTC launched from the Air Force Western Test Range (AFWTR). Debris objects in space refer to the collection of defunct objects orbiting the Earth. Examples of debris include non-operational satellites, rocket bodies, and fragments generated from explosions, collisions, or faulty payload assembly.

Loading next visibility...
Identifier
13528, 1974-089EP
Orbit
LEO
Country
Flag of USUS
Related business
Manufacturer
Unknown
Mission
Spacecraft
Bus & Motor
Unknown
Mass
Unknown
Launch date (UTC)
1974-11-15 (51 years ago)
Launch vehicle
Unknown
Launch site
Air Force Western Test Range (AFWTR)
Object type
Payload
Rocket body
Debris
Shape & HBR
Unknown shape, 0.1 m
Radar Cross Section
Small (<0.1 m²)

Expand to show TLE details & history
Last TLE update: 1 day ago

TLE from 1 day ago
0 THORAD DELTA 1 DEB
1 13528U 74089EP  25285.86239263  .00000548  00000-0  26636-2 0  9990
2 13528 103.1251 256.8433 0068111 180.5502 209.6806 12.79171701 98131
Epoch: 2025-10-12T20:41Z
TLE epoch observation values (Epoch: 2025-10-12T20:41:50.723Z)
Latitude
29.03876°
Longitude
-82.69255°
Altitude
1,393.882 km
Speed
7.144 km/s
True Right ascension
16h 37m 46s
True Declination
28° 54' 18"
Sunlit
Object was in daylight at epoch
Visualization orbit readout
Latitude
Unknown
Longitude
Unknown
Altitude
Unknown
Speed
Unknown
Apparent Right ascension
Unknown
Apparent Declination
Unknown
Sunlit
N/A
Visualization observer readout
Local Sidereal Time
18:27:06
Azimuth
Unknown
Elevation
Unknown
Doppler factor
Unknown
Orbital elements
Apogee altitude
1,394.982 km
Perigee altitude
1,289.812 km
Semi-major axis
7,720.534 km
Eccentricity
0.00681
Inclination
103.1251°
RAAN
256.8433°
Arg. of periapsis
180.5502°
True anomaly
209.29697°
Mean anomaly
209.6806°
Eccentric anomaly
209.4885°
Mean motion
3.19943 °/min
Orbital period
112.52 mins
BSTAR
0.0026636
Loading maneuver chart data...
Computing Atmospheric mass density...

Documentation

Showing up to 5 results
|